This is the latest recevied weather packets stored in our database for station/object N3FAA. If no packets are shown the sender has not sent any weather packets the latest 10 day(s).
| Time | Temp. | Humidity | Pressure | Rain* | Wind** | Luminosity | Snow |
|---|---|---|---|---|---|---|---|
| 1778096462 | 26.11° C | 27% | 1014.3 hPa | 0 mm | - | 820 W/m² | - |
| 1778096160 | 26.67° C | 27% | 1014.3 hPa | 0 mm | - | 870 W/m² | - |
| 1778095857 | 25.56° C | 28% | 1014.5 hPa | 0 mm | - | 884 W/m² | - |
| 1778095553 | 25.56° C | 28% | 1014.3 hPa | 0 mm | - | 885 W/m² | - |
| 1778095249 | 26.11° C | 28% | 1014.4 hPa | 0 mm | - | 874 W/m² | - |
| 1778094946 | 25° C | 29% | 1014.4 hPa | 0 mm | - | 779 W/m² | - |
| 1778094642 | 25° C | 30% | 1014.6 hPa | 0 mm | - | 769 W/m² | - |
| 1778094340 | 24.44° C | 31% | 1014.5 hPa | 0 mm | - | 874 W/m² | - |
| 1778094036 | 24.44° C | 30% | 1014.6 hPa | 0 mm | - | 916 W/m² | - |
| 1778093734 | 23.89° C | 32% | 1014.4 hPa | 0 mm | - | 904 W/m² | - |
| 1778093430 | 25° C | 32% | 1014.6 hPa | 0 mm | - | 892 W/m² | - |
| 1778093128 | 23.89° C | 33% | 1014.7 hPa | 0 mm | - | 892 W/m² | - |
| 1778092825 | 23.89° C | 32% | 1014.7 hPa | 0 mm | - | 900 W/m² | - |
| 1778092520 | 23.33° C | 33% | 1014.8 hPa | 0 mm | - | 945 W/m² | - |
| 1778092217 | 23.33° C | 34% | 1014.9 hPa | 0 mm | - | 968 W/m² | - |
| 1778091915 | 23.33° C | 35% | 1015.1 hPa | 0 mm | - | 980 W/m² | - |
| 1778091612 | 23.33° C | 34% | 1014.8 hPa | 0 mm | - | 992 W/m² | - |
| 1778091310 | 22.22° C | 37% | 1015 hPa | 0 mm | - | 986 W/m² | - |
| 1778091006 | 22.78° C | 36% | 1014.8 hPa | 0 mm | - | 996 W/m² | - |
| 1778090703 | 23.33° C | 36% | 1014.7 hPa | 0 mm | - | 999 W/m² | - |
| 1778090399 | 22.78° C | 35% | 1015 hPa | 0 mm | - | 958 W/m² | - |
| 1778090096 | 22.22° C | 36% | 1014.7 hPa | 0 mm | - | 994 W/m² | - |
| 1778089792 | 22.22° C | 36% | 1014.9 hPa | 0 mm | - | 1019 W/m² | - |
| 1778089491 | 21.67° C | 38% | 1015.2 hPa | 0 mm | - | 968 W/m² | - |
| 1778089187 | 21.67° C | 38% | 1015.2 hPa | 0 mm | - | 924 W/m² | - |
* Rain latest hour (hover to see other rain measurements)
** Current wind speed in m/s (hover to see current wind gust speed)